Time,TemperatureF,DewpointF,PressureIn,WindDirection,WindDirectionDegrees,WindSpeedMPH,WindSpeedGustMPH,Humidity,HourlyPrecipIn,Conditions,Clouds,dailyrainin,SoftwareType,DateUTC
2013-05-20 00:01:00,54.1,52.4,30.20,ESE,108,5.0,8.1,94,0.04,-RA,,0.00,WeatherDisplay:10.37,2013-05-20 04:01:00,
2013-05-20 00:02:00,54.1,52.4,30.20,SE,142,3.4,5.8,94,0.04,-RA,,0.00,WeatherDisplay:10.37,2013-05-20 04:02:00,
2013-05-20 00:07:00,54.1,52.4,30.20,SE,128,4.0,8.1,94,0.03,-RA,,0.00,WeatherDisplay:10.37,2013-05-20 04:07:00,
2013-05-20 00:12:00,54.1,52.4,30.20,ESE,122,6.0,10.4,94,0.03,-RA,,0.00,WeatherDisplay:10.37,2013-05-20 04:12:00,
2013-05-20 00:17:00,54.1,52.4,30.20,SE,132,4.9,8.1,94,0.02,-RA,,0.00,WeatherDisplay:10.37,2013-05-20 04:17:00,
2013-05-20 00:22:00,54.1,52.4,30.20,SE,134,4.9,6.9,94,0.02,-RA,,0.00,WeatherDisplay:10.37,2013-05-20 04:22:00,
2013-05-20 00:27:00,54.1,52.4,30.20,SSE,152,2.4,3.5,94,0.03,-RA,,0.01,WeatherDisplay:10.37,2013-05-20 04:27:00,
2013-05-20 00:32:00,54.1,52.7,30.19,SE,144,0.5,2.3,95,0.03,-RA,,0.01,WeatherDisplay:10.37,2013-05-20 04:32:00,
2013-05-20 00:37:00,54.1,52.7,30.19,South,173,2.0,4.6,95,0.02,-RA,,0.01,WeatherDisplay:10.37,2013-05-20 04:37:00,
2013-05-20 00:42:00,54.1,52.7,30.19,SE,138,5.5,6.9,95,0.02,-RA,,0.01,WeatherDisplay:10.37,2013-05-20 04:42:00,
2013-05-20 00:47:00,54.1,52.7,30.19,SE,124,1.7,2.3,95,0.02,-RA,,0.01,WeatherDisplay:10.37,2013-05-20 04:47:00,
2013-05-20 00:52:00,54.1,52.7,30.19,ESE,122,4.0,6.9,95,0.03,-RA,,0.02,WeatherDisplay:10.37,2013-05-20 04:52:00,
2013-05-20 00:57:00,54.1,52.7,30.19,SE,139,2.7,5.0,95,0.02,-RA,,0.02,WeatherDisplay:10.37,2013-05-20 04:57:00,
2013-05-20 01:02:00,53.9,52.5,30.18,SSE,158,1.5,3.5,95,0.02,-RA,,0.02,WeatherDisplay:10.37,2013-05-20 05:02:00,
2013-05-20 01:07:00,53.9,52.5,30.18,ESE,121,3.3,4.6,95,0.03,-RA,,0.03,WeatherDisplay:10.37,2013-05-20 05:07:00,
2013-05-20 01:12:00,54.1,52.7,30.17,SSE,151,0.1,2.3,95,0.03,-RA,,0.03,WeatherDisplay:10.37,2013-05-20 05:12:00,
2013-05-20 01:17:00,54.1,52.7,30.17,SE,127,1.5,3.5,95,0.03,-RA,,0.03,WeatherDisplay:10.37,2013-05-20 05:17:00,
2013-05-20 01:22:00,54.1,52.7,30.17,SSE,161,1.2,3.5,95,0.03,-RA,,0.03,WeatherDisplay:10.37,2013-05-20 05:22:00,
2013-05-20 01:27:00,54.1,52.7,30.17,SE,131,2.4,5.8,95,0.02,-RA,,0.03,WeatherDisplay:10.37,2013-05-20 05:27:00,
2013-05-20 01:32:00,54.2,52.8,30.16,SSE,163,4.7,6.9,95,0.02,-RA,,0.03,WeatherDisplay:10.37,2013-05-20 05:32:00,
2013-05-20 01:37:00,54.4,53.0,30.16,SSE,148,2.2,3.5,95,0.03,-RA,,0.04,WeatherDisplay:10.37,2013-05-20 05:37:00,
2013-05-20 01:42:00,54.4,53.0,30.16,SSE,153,0.0,1.0,95,0.03,-RA,,0.04,WeatherDisplay:10.37,2013-05-20 05:42:00,
2013-05-20 01:47:00,54.4,53.0,30.16,SE,132,0.4,2.3,95,0.03,-RA,,0.04,WeatherDisplay:10.37,2013-05-20 05:47:00,
2013-05-20 01:52:00,54.4,53.0,30.16,SE,125,1.8,2.3,95,0.02,-RA,,0.04,WeatherDisplay:10.37,2013-05-20 05:52:00,
2013-05-20 01:57:00,54.5,53.1,30.16,SE,139,3.5,5.8,95,0.02,-RA,,0.04,WeatherDisplay:10.37,2013-05-20 05:57:00,
2013-05-20 02:02:00,54.5,53.1,30.15,SSE,152,2.3,3.5,95,0.02,OVC,,0.04,WeatherDisplay:10.37,2013-05-20 06:02:00,
2013-05-20 02:07:00,54.7,53.3,30.15,SE,125,0.2,1.2,95,0.01,OVC,,0.04,WeatherDisplay:10.37,2013-05-20 06:07:00,
2013-05-20 02:12:00,54.7,53.3,30.14,SSE,149,1.4,3.5,95,0.01,OVC,,0.04,WeatherDisplay:10.37,2013-05-20 06:12:00,
2013-05-20 02:17:00,54.7,53.3,30.15,SSE,161,0.8,2.3,95,0.01,OVC,,0.04,WeatherDisplay:10.37,2013-05-20 06:17:00,
2013-05-20 02:22:00,54.7,53.3,30.14,SSE,162,0.4,2.3,95,0.01,OVC,,0.04,WeatherDisplay:10.37,2013-05-20 06:22:00,
2013-05-20 02:27:00,54.7,53.3,30.14,SSE,162,0.4,1.2,95,0.01,OVC,,0.04,WeatherDisplay:10.37,2013-05-20 06:27:00,
2013-05-20 02:32:00,54.8,53.4,30.14,SSE,162,0.0,0.0,95,0.01,OVC,,0.04,WeatherDisplay:10.37,2013-05-20 06:32:00,
2013-05-20 02:37:00,54.8,53.4,30.14,SSE,162,0.0,0.0,95,0.00,OVC,,0.04,WeatherDisplay:10.37,2013-05-20 06:37:00,
2013-05-20 02:42:00,54.8,53.4,30.13,SSE,153,1.7,2.3,95,0.00,OVC,,0.04,WeatherDisplay:10.37,2013-05-20 06:42:00,
2013-05-20 02:47:00,54.8,53.4,30.13,SSE,166,1.0,3.5,95,0.01,OVC,,0.05,WeatherDisplay:10.37,2013-05-20 06:47:00,
2013-05-20 02:52:00,54.8,53.4,30.13,SSE,152,1.3,2.3,95,0.01,OVC,,0.05,WeatherDisplay:10.37,2013-05-20 06:52:00,
2013-05-20 02:57:00,54.8,53.4,30.13,SE,146,0.6,2.3,95,0.01,OVC,,0.05,WeatherDisplay:10.37,2013-05-20 06:57:00,
2013-05-20 03:02:00,54.8,53.4,30.11,SSE,152,2.3,3.5,95,0.01,OVC,,0.05,WeatherDisplay:10.37,2013-05-20 07:02:00,
2013-05-20 03:07:00,55.0,53.6,30.11,SSE,162,1.4,2.3,95,0.01,OVC,,0.05,WeatherDisplay:10.37,2013-05-20 07:07:00,
2013-05-20 03:12:00,55.0,53.6,30.11,South,169,3.0,4.6,95,0.01,OVC,,0.05,WeatherDisplay:10.37,2013-05-20 07:12:00,
2013-05-20 03:17:00,55.0,53.6,30.11,South,179,1.1,2.3,95,0.01,OVC,,0.05,WeatherDisplay:10.37,2013-05-20 07:17:00,
2013-05-20 03:22:00,55.0,53.6,30.11,South,177,0.9,2.3,95,0.01,OVC,,0.05,WeatherDisplay:10.37,2013-05-20 07:22:00,
2013-05-20 03:27:00,55.0,53.6,30.11,South,179,0.0,0.0,95,0.01,OVC,,0.05,WeatherDisplay:10.37,2013-05-20 07:27:00,
2013-05-20 03:32:00,55.0,53.6,30.11,South,177,0.1,2.0,95,0.01,OVC,,0.05,WeatherDisplay:10.37,2013-05-20 07:32:00,
2013-05-20 03:37:00,55.0,53.6,30.11,South,179,0.7,1.2,95,0.01,OVC,,0.05,WeatherDisplay:10.37,2013-05-20 07:37:00,
2013-05-20 03:42:00,55.0,53.6,30.11,South,177,0.8,2.3,95,0.01,OVC,,0.05,WeatherDisplay:10.37,2013-05-20 07:42:00,
2013-05-20 03:47:00,55.0,53.6,30.10,SE,146,1.3,3.5,95,0.00,OVC,,0.05,WeatherDisplay:10.37,2013-05-20 07:47:00,
2013-05-20 03:52:00,55.0,53.6,30.10,SE,146,0.7,2.3,95,0.00,OVC,,0.05,WeatherDisplay:10.37,2013-05-20 07:52:00,
2013-05-20 03:57:00,55.1,53.7,30.10,SSE,152,1.6,3.5,95,0.00,OVC,,0.05,WeatherDisplay:10.37,2013-05-20 07:57:00,
2013-05-20 04:02:00,55.1,53.7,30.10,SSE,151,0.1,1.2,95,0.00,OVC,,0.05,WeatherDisplay:10.37,2013-05-20 08:02:00,
2013-05-20 04:07:00,55.1,53.7,30.09,SE,129,1.0,2.3,95,0.00,OVC,,0.05,WeatherDisplay:10.37,2013-05-20 08:07:00,
2013-05-20 04:12:00,55.1,53.7,30.09,ESE,121,0.8,2.3,95,0.00,OVC,,0.05,WeatherDisplay:10.37,2013-05-20 08:12:00,
2013-05-20 04:17:00,55.1,53.7,30.09,SE,131,2.1,3.5,95,0.00,OVC,,0.05,WeatherDisplay:10.37,2013-05-20 08:17:00,
2013-05-20 04:22:00,55.1,53.7,30.09,SSE,165,2.0,3.5,95,0.00,OVC,,0.05,WeatherDisplay:10.37,2013-05-20 08:22:00,
2013-05-20 04:27:00,55.1,53.7,30.09,SSE,166,1.3,3.5,95,0.00,OVC,,0.05,WeatherDisplay:10.37,2013-05-20 08:27:00,
2013-05-20 04:32:00,55.1,53.7,30.08,SSE,165,0.2,1.2,95,0.00,OVC,,0.05,WeatherDisplay:10.37,2013-05-20 08:32:00,
2013-05-20 04:37:00,55.1,53.7,30.08,SE,137,0.6,3.0,95,0.00,OVC,,0.05,WeatherDisplay:10.37,2013-05-20 08:37:00,
2013-05-20 04:42:00,55.1,53.7,30.08,SE,138,1.1,2.3,95,0.00,OVC,,0.05,WeatherDisplay:10.37,2013-05-20 08:42:00,
2013-05-20 04:47:00,55.3,53.9,30.08,SSE,149,1.4,2.3,95,0.00,OVC,,0.05,WeatherDisplay:10.37,2013-05-20 08:47:00,
2013-05-20 04:52:00,55.3,53.9,30.08,SSE,158,1.2,3.5,95,0.00,OVC,,0.05,WeatherDisplay:10.37,2013-05-20 08:52:00,
2013-05-20 04:57:00,55.3,53.9,30.08,SE,141,1.2,3.5,95,0.00,OVC,,0.05,WeatherDisplay:10.37,2013-05-20 08:57:00,
2013-05-20 05:02:00,55.3,53.9,30.07,South,180,1.8,3.5,95,0.00,OVC,,0.05,WeatherDisplay:10.37,2013-05-20 09:02:00,
2013-05-20 05:07:00,55.3,53.9,30.07,South,179,0.0,0.0,95,0.00,OVC,,0.05,WeatherDisplay:10.37,2013-05-20 09:07:00,
2013-05-20 05:12:00,55.3,53.9,30.07,South,179,0.1,1.2,95,0.00,OVC,,0.05,WeatherDisplay:10.37,2013-05-20 09:12:00,
2013-05-20 05:17:00,55.3,53.9,30.07,South,179,0.0,0.0,95,0.00,OVC,,0.05,WeatherDisplay:10.37,2013-05-20 09:17:00,
2013-05-20 05:22:00,55.4,54.0,30.07,SSE,149,0.0,0.0,95,0.00,OVC,,0.05,WeatherDisplay:10.37,2013-05-20 09:22:00,
2013-05-20 05:27:00,55.4,54.3,30.07,SSE,148,0.0,0.0,96,0.00,OVC,,0.05,WeatherDisplay:10.37,2013-05-20 09:27:00,
2013-05-20 05:32:00,55.4,54.3,30.06,SE,146,0.2,1.2,96,0.00,OVC,,0.05,WeatherDisplay:10.37,2013-05-20 09:32:00,
2013-05-20 05:37:00,55.4,54.3,30.06,SSE,149,0.0,0.0,96,0.00,OVC,,0.05,WeatherDisplay:10.37,2013-05-20 09:37:00,
2013-05-20 05:42:00,55.4,54.3,30.06,SSE,148,0.0,0.0,96,0.00,OVC,,0.05,WeatherDisplay:10.37,2013-05-20 09:42:00,
2013-05-20 05:47:00,55.4,54.3,30.06,SSE,148,0.2,1.2,96,0.00,OVC,,0.05,WeatherDisplay:10.37,2013-05-20 09:47:00,
2013-05-20 05:52:00,55.6,54.5,30.06,SSE,151,0.2,2.0,96,0.00,OVC,,0.05,WeatherDisplay:10.37,2013-05-20 09:52:00,
2013-05-20 05:57:00,55.6,54.5,30.06,SSE,151,0.2,2.3,96,0.00,OVC,,0.05,WeatherDisplay:10.37,2013-05-20 09:57:00,
2013-05-20 06:02:00,55.6,54.5,30.05,SSE,163,2.9,4.6,96,0.01,OVC,,0.06,WeatherDisplay:10.37,2013-05-20 10:02:00,
2013-05-20 06:07:00,55.7,54.6,30.05,SSE,162,1.1,3.5,96,0.01,OVC,,0.06,WeatherDisplay:10.37,2013-05-20 10:07:00,
2013-05-20 06:12:00,55.7,54.6,30.05,South,190,2.4,3.5,96,0.01,OVC,,0.06,WeatherDisplay:10.37,2013-05-20 10:12:00,
2013-05-20 06:17:00,55.7,54.6,30.05,SSW,207,0.2,1.2,96,0.01,OVC,,0.06,WeatherDisplay:10.37,2013-05-20 10:17:00,
2013-05-20 06:22:00,55.9,54.8,30.05,SSW,206,0.0,0.0,96,0.01,OVC,,0.06,WeatherDisplay:10.37,2013-05-20 10:22:00,
2013-05-20 06:27:00,55.9,54.8,30.05,SSE,155,1.0,2.3,96,0.01,OVC,,0.06,WeatherDisplay:10.37,2013-05-20 10:27:00,
2013-05-20 06:32:00,56.0,54.9,30.05,SSW,207,2.5,3.5,96,0.01,OVC,,0.06,WeatherDisplay:10.37,2013-05-20 10:32:00,
2013-05-20 06:37:00,56.2,55.1,30.05,South,173,1.9,3.5,96,0.01,OVC,,0.06,WeatherDisplay:10.37,2013-05-20 10:37:00,
2013-05-20 06:42:00,56.2,55.1,30.05,WSW,238,0.3,1.2,96,0.01,OVC,,0.06,WeatherDisplay:10.37,2013-05-20 10:42:00,
2013-05-20 06:47:00,56.2,55.1,30.05,SSW,196,1.1,2.3,96,0.01,OVC,,0.06,WeatherDisplay:10.37,2013-05-20 10:47:00,
2013-05-20 06:52:00,56.2,55.1,30.05,SSW,196,0.4,1.2,96,0.01,OVC,,0.06,WeatherDisplay:10.37,2013-05-20 10:52:00,
2013-05-20 06:57:00,56.2,55.1,30.05,South,180,0.0,0.0,96,0.01,OVC,,0.06,WeatherDisplay:10.37,2013-05-20 10:57:00,
2013-05-20 07:02:00,56.3,55.2,30.05,South,183,0.0,0.0,96,0.00,OVC,,0.06,WeatherDisplay:10.37,2013-05-20 11:02:00,
2013-05-20 07:07:00,56.3,55.2,30.05,South,182,0.0,0.0,96,0.00,OVC,,0.06,WeatherDisplay:10.37,2013-05-20 11:07:00,
2013-05-20 07:12:00,56.4,55.3,30.06,South,182,0.0,0.0,96,0.00,OVC,,0.06,WeatherDisplay:10.37,2013-05-20 11:12:00,
2013-05-20 07:17:00,56.6,55.5,30.05,SSE,159,1.9,3.5,96,0.00,OVC,,0.06,WeatherDisplay:10.37,2013-05-20 11:17:00,
2013-05-20 07:22:00,56.6,55.5,30.06,South,175,1.0,3.5,96,0.00,OVC,,0.06,WeatherDisplay:10.37,2013-05-20 11:22:00,
2013-05-20 07:27:00,56.7,55.6,30.06,South,185,0.5,1.2,96,0.00,OVC,,0.06,WeatherDisplay:10.37,2013-05-20 11:27:00,
2013-05-20 07:32:00,56.9,55.8,30.05,SSE,156,0.4,2.0,96,0.00,OVC,,0.06,WeatherDisplay:10.37,2013-05-20 11:32:00,
2013-05-20 07:37:00,57.2,56.1,30.05,SSE,161,0.3,2.3,96,0.00,OVC,,0.06,WeatherDisplay:10.37,2013-05-20 11:37:00,
2013-05-20 07:42:00,57.3,56.2,30.05,SSE,162,1.1,2.3,96,0.00,OVC,,0.06,WeatherDisplay:10.37,2013-05-20 11:42:00,
2013-05-20 07:47:00,57.5,56.4,30.05,SSE,155,2.4,3.5,96,0.00,OVC,,0.06,WeatherDisplay:10.37,2013-05-20 11:47:00,
2013-05-20 07:52:00,57.7,56.6,30.05,SSE,158,1.6,3.5,96,0.00,OVC,,0.06,WeatherDisplay:10.37,2013-05-20 11:52:00,
2013-05-20 07:57:00,57.8,56.7,30.05,SSE,161,1.8,3.5,96,0.00,OVC,,0.06,WeatherDisplay:10.37,2013-05-20 11:57:00,
2013-05-20 08:02:00,58.1,57.0,30.04,SSE,161,2.5,3.5,96,0.00,OVC,,0.06,WeatherDisplay:10.37,2013-05-20 12:02:00,
2013-05-20 08:07:00,58.6,57.5,30.04,South,176,3.2,5.8,96,0.00,OVC,,0.06,WeatherDisplay:10.37,2013-05-20 12:07:00,
2013-05-20 08:12:00,58.7,57.6,30.05,South,172,1.6,3.5,96,0.00,OVC,,0.06,WeatherDisplay:10.37,2013-05-20 12:12:00,
2013-05-20 08:17:00,58.9,57.8,30.05,SSE,163,4.7,5.8,96,0.00,OVC,,0.06,WeatherDisplay:10.37,2013-05-20 12:17:00,
2013-05-20 08:22:00,59.2,58.1,30.05,South,185,4.1,5.8,96,0.00,OVC,,0.06,WeatherDisplay:10.37,2013-05-20 12:22:00,
2013-05-20 08:27:00,59.3,58.2,30.05,SW,218,2.0,3.5,96,0.00,OVC,,0.06,WeatherDisplay:10.37,2013-05-20 12:27:00,
2013-05-20 08:32:00,59.8,58.7,30.05,SSW,197,1.7,3.5,96,0.00,OVC,,0.06,WeatherDisplay:10.37,2013-05-20 12:32:00,
2013-05-20 08:37:00,60.2,59.1,30.05,SE,135,1.0,2.3,96,0.00,OVC,,0.06,WeatherDisplay:10.37,2013-05-20 12:37:00,
2013-05-20 08:42:00,60.6,59.5,30.05,SSW,210,3.6,5.8,96,0.00,OVC,,0.06,WeatherDisplay:10.37,2013-05-20 12:42:00,
2013-05-20 08:47:00,60.9,59.5,30.05,South,183,2.1,3.5,95,0.00,OVC,,0.06,WeatherDisplay:10.37,2013-05-20 12:47:00,
2013-05-20 08:52:00,61.3,59.9,30.05,South,169,4.8,6.9,95,0.00,OVC,,0.06,WeatherDisplay:10.37,2013-05-20 12:52:00,
2013-05-20 08:57:00,61.5,60.1,30.04,SSW,200,4.2,6.9,95,0.00,OVC,,0.06,WeatherDisplay:10.37,2013-05-20 12:57:00,
2013-05-20 09:02:00,62.0,60.3,30.04,SSW,213,3.3,7.0,94,0.00,OVC,,0.06,WeatherDisplay:10.37,2013-05-20 13:02:00,
2013-05-20 09:07:00,62.3,60.2,30.04,SW,216,1.2,2.3,93,0.00,OVC,,0.06,WeatherDisplay:10.37,2013-05-20 13:07:00,
2013-05-20 09:12:00,63.1,60.7,30.04,South,177,2.0,3.5,92,0.00,OVC,,0.06,WeatherDisplay:10.37,2013-05-20 13:12:00,
2013-05-20 09:17:00,63.4,60.1,30.05,WSW,237,2.0,3.5,89,0.00,OVC,,0.06,WeatherDisplay:10.37,2013-05-20 13:17:00,
2013-05-20 09:22:00,63.9,60.0,30.05,SSW,209,4.2,6.9,87,0.00,OVC,,0.06,WeatherDisplay:10.37,2013-05-20 13:22:00,
2013-05-20 09:27:00,64.2,58.9,30.04,SSW,193,1.5,2.3,83,0.00,OVC,,0.06,WeatherDisplay:10.37,2013-05-20 13:27:00,
2013-05-20 09:32:00,64.7,59.1,30.03,SE,131,2.3,3.5,82,0.00,OVC,,0.06,WeatherDisplay:10.37,2013-05-20 13:32:00,
2013-05-20 09:37:00,65.0,59.0,30.03,South,173,1.0,2.3,81,0.00,OVC,,0.06,WeatherDisplay:10.37,2013-05-20 13:37:00,
2013-05-20 09:42:00,65.5,59.2,30.03,SSE,159,0.2,1.2,80,0.00,OVC,,0.06,WeatherDisplay:10.37,2013-05-20 13:42:00,
2013-05-20 09:47:00,65.7,59.0,30.03,SSE,168,0.4,1.2,79,0.00,OVC,,0.06,WeatherDisplay:10.37,2013-05-20 13:47:00,
2013-05-20 09:52:00,65.8,58.7,30.03,SSW,206,0.0,0.0,78,0.00,OVC,,0.06,WeatherDisplay:10.37,2013-05-20 13:52:00,
2013-05-20 09:57:00,66.1,59.4,30.03,SSW,207,0.0,0.0,79,0.00,OVC,,0.06,WeatherDisplay:10.37,2013-05-20 13:57:00,
2013-05-20 10:02:00,66.5,59.1,30.03,NW,323,1.0,3.5,77,0.00,OVC,,0.06,WeatherDisplay:10.37,2013-05-20 14:02:00,
2013-05-20 10:07:00,66.6,59.2,30.03,SE,124,1.0,3.5,77,0.00,OVC,,0.06,WeatherDisplay:10.37,2013-05-20 14:07:00,
2013-05-20 10:12:00,66.6,58.8,30.03,NW,305,0.9,7.0,76,0.00,OVC,,0.06,WeatherDisplay:10.37,2013-05-20 14:12:00,
2013-05-20 10:17:00,67.0,59.9,30.03,West,281,1.9,5.0,78,0.00,OVC,,0.06,WeatherDisplay:10.37,2013-05-20 14:17:00,
2013-05-20 10:22:00,67.5,59.7,30.03,WNW,296,2.6,3.5,76,0.00,OVC,,0.06,WeatherDisplay:10.37,2013-05-20 14:22:00,
2013-05-20 10:27:00,68.0,59.8,30.02,NW,314,2.0,3.5,75,0.00,OVC,,0.06,WeatherDisplay:10.37,2013-05-20 14:27:00,
2013-05-20 10:32:00,68.5,59.5,30.02,NNW,341,5.9,9.2,73,0.00,OVC,,0.06,WeatherDisplay:10.37,2013-05-20 14:32:00,
2013-05-20 10:37:00,69.0,60.0,30.02,WNW,297,4.4,5.8,73,0.00,OVC,,0.06,WeatherDisplay:10.37,2013-05-20 14:37:00,
2013-05-20 10:42:00,69.5,60.8,30.02,West,275,1.3,3.5,74,0.00,OVC,,0.06,WeatherDisplay:10.37,2013-05-20 14:42:00,
2013-05-20 10:47:00,70.0,60.2,30.02,SW,235,1.9,3.5,71,0.00,OVC,,0.06,WeatherDisplay:10.37,2013-05-20 14:47:00,
2013-05-20 10:52:00,70.1,59.5,30.02,WNW,282,8.9,11.5,69,0.00,OVC,,0.06,WeatherDisplay:10.37,2013-05-20 14:52:00,
2013-05-20 10:57:00,70.6,61.5,30.02,WSW,255,5.1,9.2,73,0.00,OVC,,0.06,WeatherDisplay:10.37,2013-05-20 14:57:00,
2013-05-20 11:02:00,70.8,60.5,30.02,WNW,296,2.6,5.8,70,0.00,SCT,,0.06,WeatherDisplay:10.37,2013-05-20 15:02:00,
2013-05-20 11:07:00,71.3,60.6,30.02,WNW,295,5.8,8.1,69,0.00,SCT,,0.06,WeatherDisplay:10.37,2013-05-20 15:07:00,
2013-05-20 11:12:00,71.8,60.7,30.02,WNW,300,5.0,8.1,68,0.00,SCT,,0.06,WeatherDisplay:10.37,2013-05-20 15:12:00,
2013-05-20 11:17:00,72.4,60.8,30.01,North,1,4.3,6.9,67,0.00,SCT,,0.06,WeatherDisplay:10.37,2013-05-20 15:17:00,
2013-05-20 11:22:00,72.2,59.8,30.01,North,8,3.0,5.0,65,0.00,SCT,,0.06,WeatherDisplay:10.37,2013-05-20 15:22:00,
2013-05-20 11:27:00,72.4,60.8,30.01,NW,323,1.0,2.3,67,0.00,SCT,,0.06,WeatherDisplay:10.37,2013-05-20 15:27:00,
2013-05-20 11:32:00,72.9,60.9,30.00,West,281,2.5,4.6,66,0.00,SCT,,0.06,WeatherDisplay:10.37,2013-05-20 15:32:00,
2013-05-20 11:37:00,73.6,61.5,30.00,West,268,5.7,6.9,66,0.00,SCT,,0.06,WeatherDisplay:10.37,2013-05-20 15:37:00,
2013-05-20 11:42:00,74.3,61.8,30.00,NNW,341,1.8,3.5,65,0.00,SCT,,0.06,WeatherDisplay:10.37,2013-05-20 15:42:00,
2013-05-20 11:47:00,74.3,60.4,29.99,WNW,283,3.8,5.8,62,0.00,SCT,,0.06,WeatherDisplay:10.37,2013-05-20 15:47:00,
2013-05-20 11:52:00,74.4,60.1,29.99,NW,324,2.0,5.8,61,0.00,SCT,,0.06,WeatherDisplay:10.37,2013-05-20 15:52:00,
2013-05-20 11:57:00,74.8,61.4,29.99,WNW,285,3.4,4.6,63,0.00,SCT,,0.06,WeatherDisplay:10.37,2013-05-20 15:57:00,
2013-05-20 12:02:00,75.1,60.7,29.99,NW,323,3.2,5.8,61,0.00,BKN,,0.06,WeatherDisplay:10.37,2013-05-20 16:02:00,
2013-05-20 12:07:00,74.6,60.7,29.99,NNW,344,2.5,4.6,62,0.00,BKN,,0.06,WeatherDisplay:10.37,2013-05-20 16:07:00,
2013-05-20 12:12:00,74.1,60.2,29.99,West,272,2.1,3.5,62,0.00,BKN,,0.06,WeatherDisplay:10.37,2013-05-20 16:12:00,
2013-05-20 12:17:00,73.9,60.1,29.99,NNE,29,0.4,2.3,62,0.00,BKN,,0.06,WeatherDisplay:10.37,2013-05-20 16:17:00,
2013-05-20 12:22:00,73.7,59.9,29.99,NE,45,0.0,0.0,62,0.00,BKN,,0.06,WeatherDisplay:10.37,2013-05-20 16:22:00,
2013-05-20 12:27:00,74.3,62.6,29.99,WNW,295,1.9,3.5,67,0.00,BKN,,0.06,WeatherDisplay:10.37,2013-05-20 16:27:00,
2013-05-20 12:32:00,74.3,60.0,29.98,NNE,15,0.1,1.2,61,0.00,BKN,,0.06,WeatherDisplay:10.37,2013-05-20 16:32:00,
2013-05-20 12:37:00,74.8,60.9,29.98,West,264,1.4,3.5,62,0.00,BKN,,0.06,WeatherDisplay:10.37,2013-05-20 16:37:00,
2013-05-20 12:42:00,74.6,59.3,29.98,North,4,1.8,3.5,59,0.00,BKN,,0.06,WeatherDisplay:10.37,2013-05-20 16:42:00,
2013-05-20 12:47:00,74.6,60.3,29.98,WSW,248,4.3,8.1,61,0.00,BKN,,0.06,WeatherDisplay:10.37,2013-05-20 16:47:00,
2013-05-20 12:52:00,74.6,60.7,29.98,North,358,1.8,3.5,62,0.00,BKN,,0.06,WeatherDisplay:10.37,2013-05-20 16:52:00,
2013-05-20 12:57:00,74.8,60.9,29.98,NNW,338,3.8,5.8,62,0.00,BKN,,0.06,WeatherDisplay:10.37,2013-05-20 16:57:00,
2013-05-20 13:02:00,74.8,60.4,29.97,NW,306,3.5,6.9,61,0.00,OVC,,0.06,WeatherDisplay:10.37,2013-05-20 17:02:00,
2013-05-20 13:07:00,74.6,60.3,29.97,West,276,5.6,8.1,61,0.00,OVC,,0.06,WeatherDisplay:10.37,2013-05-20 17:07:00,
2013-05-20 13:12:00,74.6,59.3,29.97,NW,314,2.8,4.6,59,0.00,OVC,,0.06,WeatherDisplay:10.37,2013-05-20 17:12:00,
2013-05-20 13:17:00,75.0,60.6,29.96,NNW,345,6.5,9.2,61,0.00,OVC,,0.06,WeatherDisplay:10.37,2013-05-20 17:17:00,
2013-05-20 13:22:00,75.5,60.6,29.96,NNW,327,8.3,11.5,60,0.00,OVC,,0.06,WeatherDisplay:10.37,2013-05-20 17:22:00,
2013-05-20 13:27:00,75.8,60.9,29.95,WNW,288,4.1,6.9,60,0.00,OVC,,0.06,WeatherDisplay:10.37,2013-05-20 17:27:00,
2013-05-20 13:32:00,76.2,60.8,29.95,NW,317,2.7,5.8,59,0.00,OVC,,0.06,WeatherDisplay:10.37,2013-05-20 17:32:00,
2013-05-20 13:37:00,75.8,59.5,29.96,North,11,1.5,3.5,57,0.00,OVC,,0.06,WeatherDisplay:10.37,2013-05-20 17:37:00,
2013-05-20 13:42:00,75.7,60.4,29.96,NNW,336,1.9,3.5,59,0.00,OVC,,0.06,WeatherDisplay:10.37,2013-05-20 17:42:00,
2013-05-20 13:47:00,75.5,60.2,29.96,NNW,343,2.6,4.6,59,0.00,OVC,,0.06,WeatherDisplay:10.37,2013-05-20 17:47:00,
2013-05-20 13:52:00,75.1,60.3,29.96,NNW,336,4.6,5.8,60,0.00,OVC,,0.06,WeatherDisplay:10.37,2013-05-20 17:52:00,
2013-05-20 13:57:00,75.3,60.9,29.96,NW,326,2.0,4.6,61,0.00,OVC,,0.06,WeatherDisplay:10.37,2013-05-20 17:57:00,
2013-05-20 14:02:00,75.7,60.8,29.96,NW,314,4.8,8.1,60,0.00,BKN,,0.06,WeatherDisplay:10.37,2013-05-20 18:02:00,
2013-05-20 14:07:00,76.4,61.5,29.96,West,279,3.8,7.0,60,0.00,BKN,,0.06,WeatherDisplay:10.37,2013-05-20 18:07:00,
2013-05-20 14:12:00,77.1,62.1,29.96,WNW,289,4.0,6.9,60,0.00,BKN,,0.06,WeatherDisplay:10.37,2013-05-20 18:12:00,
2013-05-20 14:17:00,78.0,62.5,29.95,North,354,7.4,11.5,59,0.00,BKN,,0.06,WeatherDisplay:10.37,2013-05-20 18:17:00,
2013-05-20 14:22:00,78.3,63.3,29.95,West,259,5.2,8.1,60,0.00,BKN,,0.06,WeatherDisplay:10.37,2013-05-20 18:22:00,
2013-05-20 14:27:00,78.2,60.7,29.96,NW,319,4.9,6.9,55,0.00,BKN,,0.06,WeatherDisplay:10.37,2013-05-20 18:27:00,
2013-05-20 14:32:00,77.6,62.1,29.96,NW,310,5.4,6.0,59,0.00,BKN,,0.06,WeatherDisplay:10.37,2013-05-20 18:32:00,
2013-05-20 14:37:00,77.3,61.4,29.95,NNE,24,4.1,6.9,58,0.00,BKN,,0.06,WeatherDisplay:10.37,2013-05-20 18:37:00,
2013-05-20 14:42:00,76.7,60.3,29.95,NNW,327,2.9,4.6,57,0.00,BKN,,0.06,WeatherDisplay:10.37,2013-05-20 18:42:00,
2013-05-20 14:47:00,76.4,60.5,29.95,NNW,348,1.6,3.5,58,0.00,BKN,,0.06,WeatherDisplay:10.37,2013-05-20 18:47:00,
2013-05-20 14:52:00,76.4,61.5,29.95,NNW,348,1.2,3.5,60,0.00,BKN,,0.06,WeatherDisplay:10.37,2013-05-20 18:52:00,
2013-05-20 14:57:00,76.4,61.0,29.95,NNW,340,2.0,3.5,59,0.00,BKN,,0.06,WeatherDisplay:10.37,2013-05-20 18:57:00,
2013-05-20 15:02:00,76.5,62.0,29.95,WNW,296,2.5,4.6,61,0.00,OVC,,0.06,WeatherDisplay:10.37,2013-05-20 19:02:00,
2013-05-20 15:07:00,76.4,60.5,29.95,West,278,6.4,11.5,58,0.00,OVC,,0.06,WeatherDisplay:10.37,2013-05-20 19:07:00,
2013-05-20 15:12:00,76.0,60.2,29.95,NNW,343,2.9,8.1,58,0.00,OVC,,0.06,WeatherDisplay:10.37,2013-05-20 19:12:00,
2013-05-20 15:17:00,75.8,60.0,29.95,NNW,343,2.2,3.5,58,0.00,OVC,,0.06,WeatherDisplay:10.37,2013-05-20 19:17:00,
2013-05-20 15:22:00,75.8,60.9,29.95,NNW,334,3.3,6.9,60,0.00,OVC,,0.06,WeatherDisplay:10.37,2013-05-20 19:22:00,
2013-05-20 15:27:00,75.8,60.4,29.95,NW,316,2.4,3.5,59,0.00,OVC,,0.06,WeatherDisplay:10.37,2013-05-20 19:27:00,
2013-05-20 15:32:00,75.8,60.9,29.95,North,354,3.0,5.0,60,0.00,OVC,,0.06,WeatherDisplay:10.37,2013-05-20 19:32:00,
2013-05-20 15:37:00,76.0,61.1,29.95,North,4,1.6,6.0,60,0.00,OVC,,0.06,WeatherDisplay:10.37,2013-05-20 19:37:00,
2013-05-20 15:42:00,76.0,61.1,29.95,NE,38,0.7,3.5,60,0.00,OVC,,0.06,WeatherDisplay:10.37,2013-05-20 19:42:00,
2013-05-20 15:47:00,76.5,62.5,29.95,North,358,4.0,6.9,62,0.00,OVC,,0.06,WeatherDisplay:10.37,2013-05-20 19:47:00,
2013-05-20 15:52:00,76.7,60.8,29.94,NE,50,4.4,6.9,58,0.00,OVC,,0.06,WeatherDisplay:10.37,2013-05-20 19:52:00,
2013-05-20 15:57:00,76.7,60.3,29.94,NNE,12,1.5,2.3,57,0.00,OVC,,0.06,WeatherDisplay:10.37,2013-05-20 19:57:00,
2013-05-20 16:02:00,76.7,61.3,29.94,NNW,343,1.8,3.5,59,0.00,BKN,,0.06,WeatherDisplay:10.37,2013-05-20 20:02:00,
2013-05-20 16:07:00,76.9,60.5,29.94,NNE,28,1.1,3.5,57,0.00,BKN,,0.06,WeatherDisplay:10.37,2013-05-20 20:07:00,
2013-05-20 16:12:00,77.3,60.4,29.94,NNW,338,6.3,8.1,56,0.00,BKN,,0.06,WeatherDisplay:10.37,2013-05-20 20:12:00,
2013-05-20 16:17:00,77.3,60.4,29.93,NNW,341,0.8,2.3,56,0.00,BKN,,0.06,WeatherDisplay:10.37,2013-05-20 20:17:00,
2013-05-20 16:22:00,77.8,61.3,29.93,NE,55,0.9,2.3,57,0.00,BKN,,0.06,WeatherDisplay:10.37,2013-05-20 20:22:00,
2013-05-20 16:27:00,78.2,61.7,29.93,NW,310,3.2,5.8,57,0.00,BKN,,0.06,WeatherDisplay:10.37,2013-05-20 20:27:00,
2013-05-20 16:32:00,78.0,61.5,29.93,NNW,338,3.5,5.8,57,0.00,BKN,,0.06,WeatherDisplay:10.37,2013-05-20 20:32:00,
2013-05-20 16:37:00,78.2,61.7,29.93,NNW,327,2.3,6.9,57,0.00,BKN,,0.06,WeatherDisplay:10.37,2013-05-20 20:37:00,
2013-05-20 16:42:00,78.0,61.0,29.93,NNW,341,5.3,6.9,56,0.00,BKN,,0.06,WeatherDisplay:10.37,2013-05-20 20:42:00,
2013-05-20 16:47:00,77.6,60.7,29.94,NNW,340,4.8,5.8,56,0.00,BKN,,0.06,WeatherDisplay:10.37,2013-05-20 20:47:00,
2013-05-20 16:52:00,77.6,60.2,29.93,North,7,1.6,3.5,55,0.00,BKN,,0.06,WeatherDisplay:10.37,2013-05-20 20:52:00,
2013-05-20 16:57:00,77.6,61.7,29.93,West,279,2.4,4.6,58,0.00,BKN,,0.06,WeatherDisplay:10.37,2013-05-20 20:57:00,
2013-05-20 17:02:00,77.4,61.0,29.94,North,1,2.2,3.5,57,0.00,OVC,,0.06,WeatherDisplay:10.37,2013-05-20 21:02:00,
2013-05-20 17:07:00,77.1,60.7,29.94,NNW,333,1.7,3.5,57,0.00,OVC,,0.06,WeatherDisplay:10.37,2013-05-20 21:07:00,
2013-05-20 17:12:00,76.9,61.0,29.94,North,355,1.8,3.5,58,0.00,OVC,,0.06,WeatherDisplay:10.37,2013-05-20 21:12:00,
2013-05-20 17:17:00,76.4,60.5,29.95,North,4,1.6,3.5,58,0.00,OVC,,0.06,WeatherDisplay:10.37,2013-05-20 21:17:00,
2013-05-20 17:22:00,75.5,60.2,29.95,North,2,5.5,6.9,59,0.00,OVC,,0.06,WeatherDisplay:10.37,2013-05-20 21:22:00,
2013-05-20 17:27:00,74.8,60.0,29.95,NE,35,5.9,10.4,60,0.00,OVC,,0.06,WeatherDisplay:10.37,2013-05-20 21:27:00,
2013-05-20 17:32:00,74.3,59.5,29.95,NNW,334,5.7,10.4,60,0.00,OVC,,0.06,WeatherDisplay:10.37,2013-05-20 21:32:00,
2013-05-20 17:37:00,74.1,59.8,29.96,North,351,2.0,7.0,61,0.00,OVC,,0.06,WeatherDisplay:10.37,2013-05-20 21:37:00,
2013-05-20 17:42:00,73.7,59.9,29.96,NNE,29,5.4,8.1,62,0.00,OVC,,0.06,WeatherDisplay:10.37,2013-05-20 21:42:00,
2013-05-20 17:47:00,73.7,60.3,29.96,North,2,1.9,3.5,63,0.00,OVC,,0.06,WeatherDisplay:10.37,2013-05-20 21:47:00,
2013-05-20 17:52:00,73.6,60.2,29.96,North,355,2.8,5.8,63,0.00,OVC,,0.06,WeatherDisplay:10.37,2013-05-20 21:52:00,
2013-05-20 17:57:00,73.4,60.5,29.96,NE,35,0.6,2.3,64,0.00,OVC,,0.06,WeatherDisplay:10.37,2013-05-20 21:57:00,
2013-05-20 18:02:00,73.4,60.0,29.96,NNE,12,1.0,2.3,63,0.00,OVC,,0.06,WeatherDisplay:10.37,2013-05-20 22:02:00,
2013-05-20 18:07:00,73.4,60.9,29.97,NW,323,1.9,3.5,65,0.00,OVC,,0.06,WeatherDisplay:10.37,2013-05-20 22:07:00,
2013-05-20 18:12:00,73.2,60.7,29.97,NNW,333,1.0,3.5,65,0.00,OVC,,0.06,WeatherDisplay:10.37,2013-05-20 22:12:00,
2013-05-20 18:17:00,73.0,60.1,29.96,North,2,1.1,2.3,64,0.00,OVC,,0.06,WeatherDisplay:10.37,2013-05-20 22:17:00,
2013-05-20 18:22:00,72.9,60.4,29.96,NNW,337,4.2,5.8,65,0.00,OVC,,0.06,WeatherDisplay:10.37,2013-05-20 22:22:00,
2013-05-20 18:27:00,72.7,60.3,29.96,NNE,12,1.3,6.0,65,0.00,OVC,,0.06,WeatherDisplay:10.37,2013-05-20 22:27:00,
2013-05-20 18:32:00,72.5,60.1,29.96,North,1,2.9,4.6,65,0.00,OVC,,0.06,WeatherDisplay:10.37,2013-05-20 22:32:00,
2013-05-20 18:37:00,72.4,60.0,29.96,North,1,1.3,3.5,65,0.00,OVC,,0.06,WeatherDisplay:10.37,2013-05-20 22:37:00,
2013-05-20 18:42:00,72.4,60.4,29.96,NW,321,1.1,3.0,66,0.00,OVC,,0.06,WeatherDisplay:10.37,2013-05-20 22:42:00,
2013-05-20 18:47:00,72.2,59.8,29.96,North,4,1.8,3.5,65,0.00,OVC,,0.06,WeatherDisplay:10.37,2013-05-20 22:47:00,
2013-05-20 18:52:00,72.2,60.6,29.96,North,2,0.7,1.2,67,0.00,OVC,,0.06,WeatherDisplay:10.37,2013-05-20 22:52:00,
2013-05-20 18:57:00,72.0,60.4,29.96,NNW,337,0.9,2.3,67,0.00,OVC,,0.06,WeatherDisplay:10.37,2013-05-20 22:57:00,
2013-05-20 19:02:00,71.8,60.2,29.95,NNW,336,0.6,2.3,67,0.00,BKN,,0.06,WeatherDisplay:10.37,2013-05-20 23:02:00,
2013-05-20 19:07:00,71.7,60.2,29.95,NNW,336,0.4,1.2,67,0.00,BKN,,0.06,WeatherDisplay:10.37,2013-05-20 23:07:00,
2013-05-20 19:12:00,71.5,60.4,29.95,NNW,336,0.7,2.3,68,0.00,BKN,,0.06,WeatherDisplay:10.37,2013-05-20 23:12:00,
2013-05-20 19:17:00,71.5,60.4,29.96,NNW,343,0.8,2.3,68,0.00,BKN,,0.06,WeatherDisplay:10.37,2013-05-20 23:17:00,
2013-05-20 19:22:00,71.3,60.2,29.96,NW,319,0.7,2.3,68,0.00,BKN,,0.06,WeatherDisplay:10.37,2013-05-20 23:22:00,
2013-05-20 19:27:00,71.2,60.1,29.96,North,355,0.5,3.5,68,0.00,BKN,,0.06,WeatherDisplay:10.37,2013-05-20 23:27:00,
2013-05-20 19:32:00,71.2,60.1,29.96,North,354,0.0,0.0,68,0.00,BKN,,0.06,WeatherDisplay:10.37,2013-05-20 23:32:00,
2013-05-20 19:37:00,71.0,60.3,29.96,North,355,0.4,1.2,69,0.00,BKN,,0.06,WeatherDisplay:10.37,2013-05-20 23:37:00,
2013-05-20 19:42:00,70.6,60.3,29.97,North,353,0.2,3.5,70,0.00,BKN,,0.06,WeatherDisplay:10.37,2013-05-20 23:42:00,
2013-05-20 19:47:00,70.3,60.1,29.97,NNW,344,1.3,2.3,70,0.00,BKN,,0.06,WeatherDisplay:10.37,2013-05-20 23:47:00,
2013-05-20 19:52:00,70.0,59.8,29.97,NNE,32,0.8,2.3,70,0.00,BKN,,0.06,WeatherDisplay:10.37,2013-05-20 23:52:00,
2013-05-20 19:57:00,69.8,59.6,29.97,NE,42,1.1,3.5,70,0.00,BKN,,0.06,WeatherDisplay:10.37,2013-05-20 23:57:00,
2013-05-20 20:02:00,69.6,59.8,29.97,NE,45,0.5,2.3,71,0.00,CLR,,0.06,WeatherDisplay:10.37,2013-05-21 00:02:00,
2013-05-20 20:07:00,69.3,59.5,29.97,NNE,25,0.6,2.3,71,0.00,CLR,,0.06,WeatherDisplay:10.37,2013-05-21 00:07:00,
2013-05-20 20:12:00,69.1,59.3,29.97,NNE,25,0.0,0.0,71,0.00,CLR,,0.06,WeatherDisplay:10.37,2013-05-21 00:12:00,
2013-05-20 20:17:00,69.0,59.2,29.97,NNE,31,0.0,0.0,71,0.00,CLR,,0.06,WeatherDisplay:10.37,2013-05-21 00:17:00,
2013-05-20 20:22:00,68.8,59.4,29.97,NNE,31,0.0,0.0,72,0.00,CLR,,0.06,WeatherDisplay:10.37,2013-05-21 00:22:00,
2013-05-20 20:27:00,68.5,60.3,29.97,NNE,31,0.0,0.0,75,0.00,CLR,,0.06,WeatherDisplay:10.37,2013-05-21 00:27:00,
2013-05-20 20:32:00,68.1,59.9,29.97,NNE,31,0.0,0.0,75,0.00,CLR,,0.06,WeatherDisplay:10.37,2013-05-21 00:32:00,
2013-05-20 20:37:00,67.8,59.6,29.97,NNE,31,0.0,0.0,75,0.00,CLR,,0.06,WeatherDisplay:10.37,2013-05-21 00:37:00,
2013-05-20 20:42:00,67.3,59.8,29.97,NNE,31,0.0,0.0,77,0.00,CLR,,0.06,WeatherDisplay:10.37,2013-05-21 00:42:00,
2013-05-20 20:47:00,66.8,59.7,29.98,NNE,31,0.0,0.0,78,0.00,CLR,,0.06,WeatherDisplay:10.37,2013-05-21 00:47:00,
2013-05-20 20:52:00,66.5,59.1,29.98,NNE,31,0.0,0.0,77,0.00,CLR,,0.06,WeatherDisplay:10.37,2013-05-21 00:52:00,
2013-05-20 20:57:00,66.1,59.0,29.98,NNE,31,0.0,0.0,78,0.00,CLR,,0.06,WeatherDisplay:10.37,2013-05-21 00:57:00,
2013-05-20 21:02:00,65.8,59.1,29.98,NNE,31,0.0,0.0,79,0.00,CLR,,0.06,WeatherDisplay:10.37,2013-05-21 01:02:00,
2013-05-20 21:07:00,65.5,58.8,29.98,NNE,31,0.0,0.0,79,0.00,CLR,,0.06,WeatherDisplay:10.37,2013-05-21 01:07:00,
2013-05-20 21:12:00,65.2,58.9,29.98,NNE,31,0.0,0.0,80,0.00,CLR,,0.06,WeatherDisplay:10.37,2013-05-21 01:12:00,
2013-05-20 21:17:00,64.9,58.6,29.98,NNE,32,0.0,0.0,80,0.00,CLR,,0.06,WeatherDisplay:10.37,2013-05-21 01:17:00,
2013-05-20 21:22:00,64.7,58.4,29.98,NNE,31,0.0,0.0,80,0.00,CLR,,0.06,WeatherDisplay:10.37,2013-05-21 01:22:00,
2013-05-20 21:27:00,64.4,58.1,29.98,NNE,31,0.0,0.0,80,0.00,CLR,,0.06,WeatherDisplay:10.37,2013-05-21 01:27:00,
2013-05-20 21:32:00,64.0,58.4,29.98,NNE,31,0.0,0.0,82,0.00,CLR,,0.06,WeatherDisplay:10.37,2013-05-21 01:32:00,
2013-05-20 21:37:00,63.7,58.1,29.98,NNE,31,0.0,0.0,82,0.00,CLR,,0.06,WeatherDisplay:10.37,2013-05-21 01:37:00,
2013-05-20 21:42:00,63.6,58.3,29.98,NNE,31,0.0,0.0,83,0.00,CLR,,0.06,WeatherDisplay:10.37,2013-05-21 01:42:00,
2013-05-20 21:47:00,63.2,57.9,29.98,NNE,31,0.0,0.0,83,0.00,CLR,,0.06,WeatherDisplay:10.37,2013-05-21 01:47:00,
2013-05-20 21:52:00,63.1,58.5,29.98,NNE,31,0.0,0.0,85,0.00,CLR,,0.06,WeatherDisplay:10.37,2013-05-21 01:52:00,
2013-05-20 21:57:00,62.8,58.5,29.98,NNE,31,0.0,0.0,86,0.00,CLR,,0.06,WeatherDisplay:10.37,2013-05-21 01:57:00,
2013-05-20 22:02:00,62.4,58.2,29.99,NNE,31,0.0,0.0,86,0.00,CLR,,0.06,WeatherDisplay:10.37,2013-05-21 02:02:00,
2013-05-20 22:07:00,62.3,58.1,29.99,NNE,31,0.0,0.0,86,0.00,CLR,,0.06,WeatherDisplay:10.37,2013-05-21 02:07:00,
2013-05-20 22:12:00,62.1,57.9,29.99,NNE,31,0.0,0.0,86,0.00,CLR,,0.06,WeatherDisplay:10.37,2013-05-21 02:12:00,
2013-05-20 22:17:00,61.8,57.6,29.98,NNE,29,0.0,0.0,86,0.00,CLR,,0.06,WeatherDisplay:10.37,2013-05-21 02:17:00,
2013-05-20 22:22:00,61.7,58.1,29.98,NNE,31,0.0,0.0,88,0.00,CLR,,0.06,WeatherDisplay:10.37,2013-05-21 02:22:00,
2013-05-20 22:27:00,61.5,57.9,29.98,NNE,31,0.0,0.0,88,0.00,CLR,,0.06,WeatherDisplay:10.37,2013-05-21 02:27:00,
2013-05-20 22:32:00,61.3,57.7,29.99,NNE,31,0.2,1.0,88,0.00,CLR,,0.06,WeatherDisplay:10.37,2013-05-21 02:32:00,
2013-05-20 22:37:00,61.2,57.9,29.99,NNE,31,0.0,0.0,89,0.00,CLR,,0.06,WeatherDisplay:10.37,2013-05-21 02:37:00,
2013-05-20 22:42:00,61.0,57.7,29.99,NNE,31,0.0,0.0,89,0.00,CLR,,0.06,WeatherDisplay:10.37,2013-05-21 02:42:00,
2013-05-20 22:47:00,60.9,57.6,29.98,NNE,31,0.0,0.0,89,0.00,CLR,,0.06,WeatherDisplay:10.37,2013-05-21 02:47:00,
2013-05-20 22:52:00,60.7,57.4,29.99,NNE,31,0.0,0.0,89,0.00,CLR,,0.06,WeatherDisplay:10.37,2013-05-21 02:52:00,
2013-05-20 22:57:00,60.6,57.3,29.99,NNE,31,0.0,0.0,89,0.00,CLR,,0.06,WeatherDisplay:10.37,2013-05-21 02:57:00,
2013-05-20 23:02:00,60.4,57.5,29.99,NNE,31,0.0,0.0,90,0.00,CLR,,0.06,WeatherDisplay:10.37,2013-05-21 03:02:00,
2013-05-20 23:07:00,60.2,57.3,29.99,NNE,31,0.0,0.0,90,0.00,CLR,,0.06,WeatherDisplay:10.37,2013-05-21 03:07:00,
2013-05-20 23:12:00,60.1,57.2,30.00,NNE,31,0.0,0.0,90,0.00,CLR,,0.06,WeatherDisplay:10.37,2013-05-21 03:12:00,
2013-05-20 23:17:00,59.9,57.0,29.99,NNE,31,0.0,0.0,90,0.00,CLR,,0.06,WeatherDisplay:10.37,2013-05-21 03:17:00,
2013-05-20 23:22:00,59.9,57.0,29.99,NNE,31,0.0,0.0,90,0.00,CLR,,0.06,WeatherDisplay:10.37,2013-05-21 03:22:00,
2013-05-20 23:27:00,59.8,56.9,29.99,NNE,31,0.0,0.0,90,0.00,CLR,,0.06,WeatherDisplay:10.37,2013-05-21 03:27:00,
2013-05-20 23:32:00,59.6,56.7,29.99,NNE,31,0.0,0.0,90,0.00,CLR,,0.06,WeatherDisplay:10.37,2013-05-21 03:32:00,
2013-05-20 23:37:00,59.5,56.9,30.00,NNE,31,0.0,0.0,91,0.00,CLR,,0.06,WeatherDisplay:10.37,2013-05-21 03:37:00,
2013-05-20 23:42:00,59.5,56.9,30.00,NNE,31,0.0,0.0,91,0.00,CLR,,0.06,WeatherDisplay:10.37,2013-05-21 03:42:00,
2013-05-20 23:47:00,59.3,56.7,29.99,NNE,31,0.0,0.0,91,0.00,CLR,,0.06,WeatherDisplay:10.37,2013-05-21 03:47:00,
2013-05-20 23:52:00,59.2,56.6,29.99,NNE,31,0.0,0.0,91,0.00,CLR,,0.06,WeatherDisplay:10.37,2013-05-21 03:52:00,
2013-05-20 23:57:00,59.0,56.4,30.00,NNE,31,0.0,0.0,91,0.00,CLR,,0.06,WeatherDisplay:10.37,2013-05-21 03:57:00,